Location: Biltmore Gardens
(41.6070°N, 83.4666°W)
Time: 14:18:07
(UTC+00:00)

Cosmos 2278 Rocket - Pass Details

Date: 14 July 2020
Orbit: 841 x 846 km, 71.0° (Epoch: 04 August)

Event Time Altitude Azimuth Distance (km) Brightness Sun altitude
Rises 03:38:24 0° 323° (NW) 3,410 6.9 -20.8°
Reaches altitude 10° 03:41:19 10° 309° (NW) 2,469 5.6 -21.1°
Maximum altitude 03:45:38 23° 259° (W) 1,727 4.0 -21.5°
Enters shadow 03:48:49 14° 218° (SW) 2,156 4.1 -21.8°
